Regional Weather Roundup
Issued by NWS

Home | Current Version | Previous Version | Text Only | Print | Product List | Glossary On
Versions: 1 2 3 4 5 6 7 8 9 10 11 12 13 14 15 16 17 18 19 20 21 22 23 24 25 26 27 28 29 30 31 32 33 34 35 36 37 38 39 40 41 42 43 44 45 46 47 48 49 50
000
ASUS43 KTOP 311359
RWRKS

WEATHER ROUNDUP FOR KANSAS
NATIONAL WEATHER SERVICE GOODLAND KS
900 AM CDT TUE MAY 31 2016

NOTE:  "FAIR" INDICATES FEW OR NO CLOUDS BELOW 12,000 FEET WITH NO
SIGNIFICANT WEATHER AND/OR OBSTRUCTIONS TO VISIBILITY.

KSZ001>006-013>018-027>032-041>047-311500-
NORTHWEST KANSAS

CITY           SKY/WX    TMP DP  RH WIND       PRES   REMARKS
GOODLAND       CLOUDY    57  50  77 N15       30.11R
HAYS           PTSUNNY   61  52  72 NW10      29.99R
HILL CITY      CLOUDY    62  56  80 N16G22    30.04R
RUSSELL        CLOUDY    61  59  93 NW12      29.96S
$$

KSZ061>065-074>080-084>089-311500-
SOUTHWEST KANSAS

CITY           SKY/WX    TMP DP  RH WIND       PRES   REMARKS
DODGE CITY     CLOUDY    61  58  90 N8        30.01R
ELKHART          N/A     64  54  70 E7          N/A
GARDEN CITY    CLOUDY    64  55  72 NE7       30.02S
GREAT BEND     CLOUDY    63  54  72 NW7       29.97R
LIBERAL        CLOUDY    63  54  72 N8        29.97R
$$

KSZ066>073-081>083-090>101-311500-
SOUTHEAST KANSAS

CITY           SKY/WX    TMP DP  RH WIND       PRES   REMARKS
CHANUTE        CLOUDY    67  64  90 S6        29.96F
COFFEYVILLE    CLOUDY    66  64  93 CALM      29.96R
HUTCHINSON     LGT RAIN  63  61  93 SE8       29.95S
MEDICINE LODGE   N/A     63  59  87 VRB3      29.96R
NEWTON         CLOUDY    61  55  82 SW18      29.99R
PARSONS        CLOUDY    68  65  90 CALM      29.97S
WICHITA INTL   TSTM      63  61  93 E7        29.94F
WICHITA JABRA  TSTM      61  61 100 S8        29.98R FOG
WINFIELD       RAIN      62  61  96 NE6       30.00F FOG
$$

KSZ007>012-019>026-033>040-048>060-102>105-311500-
NORTHEAST KANSAS

CITY           SKY/WX    TMP DP  RH WIND       PRES   REMARKS
CONCORDIA      CLOUDY    62  59  90 NW3       29.96R
EMPORIA        CLOUDY    65  63  93 S7        29.95R
LAWRENCE       CLOUDY    68  64  87 SE9       29.94R
MANHATTAN      CLOUDY    66  59  78 CALM      29.95R
OLATHE IND     CLOUDY    67  64  90 SE8       29.95R
OLATHE EXE     CLOUDY    65  62  90 S10       29.95R
SALINA         CLOUDY    64  61  90 NW9       29.96R
TOPEKA BILLARD CLOUDY    69  62  78 W5        29.94R
TOPEKA FORBES  PTSUNNY   69  64  84 SW8       29.95R
$$




USA.gov is the U.S. government's official web portal to all federal, state and local government web resources and services.